Home > Weather > Matsuyama > Past weeks

Flag for Japan Past Weather in Matsuyama, Japan — Yesterday and Last 2 Weeks

Now
67 °F

Mild.


Feels Like: 67 °F
Forecast: 64 / 70 °F
Wind: 2 mph from East

Location: Matsuyama

Current Time: May 28, 2016 at 5:24:12 AM

Latest Report: May 28, 2016 at 4:00 AM


Visibility: N/A

Pressure: 29.80 "Hg

Humidity: 90%

Dew Point: 64 °F

Location of MatsuyamaLocation

Past Weather in Matsuyama — Graph

°F

Matsuyama Temperature Yesterday

Maximum temperature yesterday: 80 °F (at 2:00 PM)
Minimum temperature yesterday: 69 °F (at 5:00 AM)
Average temperature yesterday: 74 °F

High & Low Weather Summary for the Past Weeks

 TemperatureHumidityPressure
High82 °F (May 23, 2:00 PM)96% (May 16, 9:00 PM)30.22 "Hg (May 16, 9:00 PM)
Low52 °F (May 17, 6:00 AM)33% (May 18, 7:00 PM)29.70 "Hg (May 16, 1:00 PM)
Average70 °F65%29.97 "Hg
* Reported May 13 4:00 AM — May 28 4:00 AM, Matsuyama, Weather by CustomWeather, © 2016

Note: Actual official high and low records may vary slightly from our data, if they occured in-between our weather recording intervals... More about our weather records

Advertising

Matsuyama Weather History for the Previous 24 Hours

Scroll right to see more
 ConditionsComfort  
Time TempWeatherWind HumidityBarometerVisibility
4:00 AM
Sat, May 28
67 °FMild.2 mph90%29.80 "HgN/A
3:00 AM68 °FLight rain. Overcast.5 mph84%29.81 "Hg4 mi
2:00 AM69 °FMild.3 mph78%29.79 "HgN/A
1:00 AM71 °FMild.3 mph71%29.80 "HgN/A
12:00 AM71 °FMild.2 mph70%29.81 "HgN/A
11:00 PM
Fri, May 27
72 °FMild.2 mph68%29.81 "HgN/A
10:00 PM73 °FMild.2 mph69%29.82 "HgN/A
9:00 PM73 °FOvercast.5 mph69%29.83 "Hg5 mi
8:00 PM74 °FMild.2 mph65%29.81 "HgN/A
7:00 PM74 °FMild.6 mph63%29.80 "HgN/A
6:00 PM76 °FOvercast.7 mph59%29.78 "Hg6 mi
5:00 PM79 °FWarm.3 mph53%29.78 "HgN/A
4:00 PM79 °FWarm.6 mph54%29.79 "HgN/A
3:00 PM79 °FOvercast.7 mph56%29.80 "Hg5 mi
2:00 PM80 °FWarm.7 mph57%29.80 "HgN/A
1:00 PM78 °FWarm.5 mph59%29.81 "HgN/A
12:00 PM79 °FOvercast.8 mph58%29.83 "Hg4 mi
11:00 AM77 °FMild.6 mph66%29.83 "HgN/A
10:00 AM75 °FMild.5 mph71%29.84 "HgN/A
9:00 AM72 °FFog.1 mph76%29.85 "Hg4 mi
8:00 AM71 °FMild.1 mph77%29.86 "HgN/A
7:00 AM70 °FMild.3 mph82%29.85 "HgN/A
6:00 AM70 °FFog.1 mph85%29.84 "Hg2 mi
5:00 AM69 °FMild.2 mph86%29.83 "HgN/A
Weather by CustomWeather, © 2016

See weather overviewHow to use our weather pages